Terug naar catalogus

STARLINK-35865

ActiefCommunicatieVLEO
NORAD 67826·PAYLOAD·🇺🇸 United States

Gelanceerd Feb 16, 2026 vanaf Vandenberg Space Force Base

Loading…

Volgende Passages (komende 24 uur)

TLE

VersSource: CelesTrak SupGP

Epoch: Sep 14, 2026, 21:01 UTC

1 67826C 26033F   26257.87618056  .00006063  00000+0  21963-3 0  2571
2 67826  43.0028 278.6033 0001822 267.8580 246.0313 15.27572111    18

Volg STARLINK-35865 in realtime met AllMySat

Download on the App Store